Time,TemperatureF,DewpointF,PressureIn,WindDirection,WindDirectionDegrees,WindSpeedMPH,WindSpeedGustMPH,Humidity,HourlyPrecipIn,Conditions,Clouds,dailyrainin,SoftwareType,DateUTC
2013-09-21 00:13:00,70.0,66.0,29.40,NNE,25,1.0,6.0,88,0.00,,,1.09,,2013-09-21 05:13:00,
2013-09-21 00:23:00,70.0,66.0,29.78,NW,323,1.0,8.0,88,0.00,,,1.07,,2013-09-21 05:23:00,
2013-09-21 00:43:00,69.0,65.0,29.84,NNE,32,1.0,6.0,88,0.00,,,1.07,,2013-09-21 05:43:00,
2013-09-21 00:52:00,69.0,65.0,29.84,NNW,340,0.0,6.0,88,0.00,,,1.07,,2013-09-21 05:52:00,
2013-09-21 01:12:00,68.0,64.0,29.82,NNE,17,0.0,3.0,87,0.00,,,1.06,,2013-09-21 06:12:00,
2013-09-21 01:22:00,68.0,64.0,29.82,NNE,20,0.0,3.0,87,0.00,,,1.05,,2013-09-21 06:22:00,
2013-09-21 01:42:00,67.0,63.0,29.82,NE,50,0.0,6.0,87,0.00,,,1.04,,2013-09-21 06:42:00,
2013-09-21 01:52:00,67.0,63.0,29.83,NNE,20,1.0,6.0,86,0.00,,,1.03,,2013-09-21 06:52:00,
2013-09-21 02:11:00,67.0,62.0,29.22,NNW,342,1.0,5.0,83,0.00,,,1.03,,2013-09-21 07:11:00,
2013-09-21 02:21:00,67.0,61.0,29.47,NNW,348,0.0,3.0,82,0.00,,,1.03,,2013-09-21 07:21:00,
2013-09-21 02:42:00,67.0,62.0,28.80,WNW,302,1.0,3.0,83,0.00,,,1.01,,2013-09-21 07:42:00,
2013-09-21 02:52:00,67.0,62.0,28.66,NW,317,1.0,3.0,83,0.00,,,0.99,,2013-09-21 07:52:00,
2013-09-21 03:13:00,66.0,61.0,29.33,WNW,283,1.0,5.0,83,0.00,,,0.96,,2013-09-21 08:13:00,
2013-09-21 03:22:00,66.0,61.0,29.48,WNW,283,0.0,3.0,83,0.00,,,0.94,,2013-09-21 08:22:00,
2013-09-21 03:52:00,66.0,60.0,29.90,NNE,21,1.0,5.0,80,0.00,,,0.88,,2013-09-21 08:52:00,
2013-09-21 04:11:00,66.0,59.0,29.92,NE,38,1.0,5.0,77,0.00,,,0.83,,2013-09-21 09:11:00,
2013-09-21 04:22:00,66.0,59.0,29.65,NE,39,1.0,6.0,77,0.00,,,0.82,,2013-09-21 09:22:00,
2013-09-21 04:43:00,65.0,57.0,29.23,NW,310,1.0,6.0,76,0.00,,,0.75,,2013-09-21 09:43:00,
2013-09-21 04:53:00,65.0,58.0,28.77,NW,309,0.0,5.0,77,0.00,,,0.68,,2013-09-21 09:53:00,
2013-09-21 05:12:00,65.0,59.0,29.15,NW,311,0.0,6.0,81,0.00,,,0.66,,2013-09-21 10:12:00,
2013-09-21 05:23:00,64.0,58.0,29.75,NW,306,1.0,3.0,82,0.00,,,0.63,,2013-09-21 10:23:00,
2013-09-21 05:42:00,63.0,58.0,29.75,NE,50,0.0,3.0,84,0.00,,,0.56,,2013-09-21 10:42:00,
2013-09-21 05:52:00,63.0,58.0,29.96,NNE,28,0.0,3.0,84,0.00,,,0.49,,2013-09-21 10:52:00,
2013-09-21 06:11:00,63.0,58.0,29.95,NW,313,0.0,3.0,85,0.00,,,0.43,,2013-09-21 11:11:00,
2013-09-21 06:23:00,63.0,59.0,29.96,NNW,330,0.0,3.0,86,0.00,,,0.41,,2013-09-21 11:23:00,
2013-09-21 06:52:00,62.0,58.0,29.93,NW,309,1.0,3.0,86,0.00,,,0.25,,2013-09-21 11:52:00,
2013-09-21 07:21:00,61.0,57.0,29.93,NW,312,1.0,3.0,87,0.00,,,0.14,,2013-09-21 12:21:00,
2013-09-21 07:52:00,61.0,57.0,29.94,NNW,339,1.0,5.0,87,0.00,,,0.13,,2013-09-21 12:52:00,
2013-09-21 08:11:00,61.0,57.0,29.67,NNW,345,2.0,6.0,86,0.00,,,0.12,,2013-09-21 13:11:00,
2013-09-21 08:21:00,61.0,57.0,29.77,NW,308,1.0,5.0,86,0.00,,,0.12,,2013-09-21 13:21:00,
2013-09-21 08:42:00,61.0,56.0,29.39,NE,39,1.0,7.0,84,0.00,,,0.12,,2013-09-21 13:42:00,
2013-09-21 08:52:00,62.0,56.0,29.23,NNW,327,1.0,7.0,81,0.00,,,0.12,,2013-09-21 13:52:00,
2013-09-21 09:11:00,63.0,56.0,28.77,NNE,24,1.0,7.0,77,0.00,,,0.12,,2013-09-21 14:11:00,
2013-09-21 09:22:00,63.0,55.0,28.15,NW,322,3.0,10.0,75,0.00,,,0.12,,2013-09-21 14:22:00,
2013-09-21 09:42:00,64.0,54.0,29.70,ENE,65,2.0,9.0,70,0.00,,,0.12,,2013-09-21 14:42:00,
2013-09-21 09:52:00,65.0,54.0,30.00,NNE,12,2.0,9.0,68,0.00,,,0.12,,2013-09-21 14:52:00,
2013-09-21 10:12:00,65.0,54.0,30.00,NNE,12,2.0,9.0,68,0.00,,,0.12,,2013-09-21 15:12:00,
2013-09-21 10:22:00,67.0,54.0,30.00,NE,44,3.0,9.0,62,0.00,,,0.12,,2013-09-21 15:22:00,
2013-09-21 10:54:00,69.0,54.0,29.51,NNE,24,2.0,14.0,58,0.00,,,0.12,,2013-09-21 15:54:00,
2013-09-21 11:24:00,72.0,53.0,29.72,NE,46,3.0,10.0,51,0.00,,,0.10,,2013-09-21 16:24:00,
2013-09-21 11:54:00,74.0,53.0,29.41,NE,38,3.0,12.0,48,0.00,,,0.08,,2013-09-21 16:54:00,
2013-09-21 12:12:00,76.0,53.0,29.44,NNE,19,3.0,12.0,45,0.00,,,0.07,,2013-09-21 17:12:00,
2013-09-21 12:23:00,76.0,52.0,29.67,NE,50,2.0,12.0,44,0.00,,,0.07,,2013-09-21 17:23:00,
2013-09-21 12:52:00,78.0,51.0,28.53,NNE,18,2.0,9.0,39,0.00,,,0.07,,2013-09-21 17:52:00,
2013-09-21 13:12:00,79.0,50.0,29.13,NE,53,3.0,12.0,36,0.00,,,0.07,,2013-09-21 18:12:00,
2013-09-21 13:22:00,80.0,52.0,29.86,NNE,26,2.0,12.0,38,0.00,,,0.07,,2013-09-21 18:22:00,
2013-09-21 13:42:00,80.0,51.0,29.81,NNE,31,2.0,10.0,37,0.00,,,0.04,,2013-09-21 18:42:00,
2013-09-21 13:52:00,80.0,49.0,29.93,NE,55,3.0,9.0,34,0.00,,,0.02,,2013-09-21 18:52:00,
2013-09-21 14:11:00,80.0,49.0,29.93,North,355,3.0,12.0,34,0.00,,,0.02,,2013-09-21 19:11:00,
2013-09-21 14:21:00,80.0,47.0,29.93,NE,55,4.0,12.0,32,0.00,,,0.02,,2013-09-21 19:21:00,
2013-09-21 14:52:00,80.0,48.0,29.33,NE,46,2.0,10.0,33,0.00,,,0.01,,2013-09-21 19:52:00,
2013-09-21 15:12:00,80.0,48.0,29.30,NNW,334,3.0,12.0,33,0.00,,,0.01,,2013-09-21 20:12:00,
2013-09-21 15:22:00,80.0,47.0,29.54,NNW,334,3.0,10.0,32,0.00,,,0.01,,2013-09-21 20:22:00,
2013-09-21 15:42:00,80.0,48.0,29.45,NNE,27,2.0,7.0,33,0.00,,,0.01,,2013-09-21 20:42:00,
2013-09-21 15:52:00,80.0,48.0,29.50,NE,42,2.0,7.0,33,0.00,,,0.01,,2013-09-21 20:52:00,
2013-09-21 16:12:00,81.0,50.0,29.80,NE,48,1.0,9.0,34,0.00,,,0.01,,2013-09-21 21:12:00,
2013-09-21 16:22:00,81.0,49.0,29.73,NNE,33,1.0,8.0,33,0.00,,,0.01,,2013-09-21 21:22:00,
2013-09-21 16:44:00,81.0,50.0,28.72,NE,43,2.0,10.0,34,0.00,,,0.01,,2013-09-21 21:44:00,
2013-09-21 16:54:00,81.0,50.0,29.24,NE,47,2.0,8.0,34,0.00,,,0.01,,2013-09-21 21:54:00,
2013-09-21 17:13:00,81.0,49.0,29.20,NE,51,1.0,9.0,33,0.00,,,0.01,,2013-09-21 22:13:00,
2013-09-21 17:23:00,81.0,49.0,29.57,ENE,58,2.0,5.0,33,0.00,,,0.01,,2013-09-21 22:23:00,
2013-09-21 17:53:00,81.0,50.0,29.28,NE,35,1.0,9.0,34,0.00,,,0.01,,2013-09-21 22:53:00,
2013-09-21 18:13:00,81.0,51.0,29.06,NNW,345,1.0,7.0,35,0.00,,,0.00,,2013-09-21 23:13:00,
2013-09-21 18:23:00,81.0,51.0,29.49,NNE,32,2.0,6.0,35,0.00,,,0.00,,2013-09-21 23:23:00,
2013-09-21 18:52:00,80.0,51.0,29.44,ENE,58,2.0,6.0,36,0.00,,,0.00,,2013-09-21 23:52:00,
2013-09-21 19:12:00,80.0,51.0,29.18,ENE,60,1.0,5.0,37,0.00,,,0.00,,2013-09-22 00:12:00,
2013-09-21 19:22:00,80.0,52.0,29.18,ENE,57,0.0,3.0,38,0.00,,,0.00,,2013-09-22 00:22:00,
2013-09-21 19:43:00,79.0,52.0,29.23,ENE,62,0.0,5.0,39,0.00,,,0.00,,2013-09-22 00:43:00,
2013-09-21 19:52:00,79.0,52.0,29.23,ENE,62,0.0,2.0,39,0.00,,,0.00,,2013-09-22 00:52:00,
2013-09-21 20:12:00,78.0,53.0,29.15,NE,52,0.0,0.0,42,0.00,,,0.00,,2013-09-22 01:12:00,
2013-09-21 20:21:00,77.0,54.0,29.15,NE,52,0.0,1.0,45,0.00,,,0.00,,2013-09-22 01:21:00,
2013-09-21 20:42:00,75.0,55.0,29.40,NE,52,0.0,0.0,49,0.00,,,0.00,,2013-09-22 01:42:00,
2013-09-21 20:52:00,74.0,56.0,29.40,NE,52,0.0,0.0,53,0.00,,,0.00,,2013-09-22 01:52:00,
2013-09-21 21:12:00,72.0,56.0,29.40,NE,52,0.0,0.0,58,0.00,,,0.00,,2013-09-22 02:12:00,
2013-09-21 21:22:00,70.0,56.0,29.40,NE,52,0.0,0.0,61,0.00,,,0.00,,2013-09-22 02:22:00,
2013-09-21 21:42:00,69.0,57.0,29.40,NE,52,0.0,1.0,65,0.00,,,0.00,,2013-09-22 02:42:00,
2013-09-21 21:52:00,68.0,57.0,29.40,NE,52,0.0,0.0,67,0.00,,,0.00,,2013-09-22 02:52:00,
2013-09-21 22:12:00,66.0,56.0,29.40,NE,52,0.0,0.0,71,0.00,,,0.00,,2013-09-22 03:12:00,
2013-09-21 22:22:00,66.0,57.0,29.40,NE,52,0.0,1.0,72,0.00,,,0.00,,2013-09-22 03:22:00,
2013-09-21 22:54:00,64.0,56.0,29.40,NE,52,0.0,0.0,76,0.00,,,0.00,,2013-09-22 03:54:00,
2013-09-21 23:02:00,-999.0,-99.9,29.40,NE,52,0.0,1.0,-999,-99.99,,,-99.99,,2013-09-22 04:02:00,
2013-09-21 23:14:00,63.0,56.0,29.40,NE,52,0.0,1.0,78,0.00,,,0.00,,2013-09-22 04:14:00,
2013-09-21 23:23:00,63.0,56.0,29.40,NE,52,0.0,0.0,78,0.00,,,0.00,,2013-09-22 04:23:00,
2013-09-21 23:44:00,62.0,56.0,29.40,NE,52,0.0,0.0,80,0.00,,,0.00,,2013-09-22 04:44:00,
2013-09-21 23:54:00,62.0,56.0,29.40,NE,52,0.0,1.0,80,0.00,,,0.00,,2013-09-22 04:54:00,